When you browse on this site, cookies collect data to enhance your experience and personalize the content and advertising you see.
Visit our Privacy Policy to learn more. By continuing to use the site, you agree to this use of cookies and data.
  • In Spain
  • List of Countries
  • For 7 days
  • Water Temperature
  • Satellite Maps
  • Weather Map
  • Weather Widgets
  • user-avatar
    Login

    Hourly Weather Newcastle

    Today, 21 July, Sunday

    Time Temperature Precipitation Wind Pressure Humidity
    00:00 +9°C° 0 mm 3 mps 764 mmHg 75%
    01:00 +8°C° 0 mm 3 mps 763 mmHg 75%
    02:00 +8°C° 0 mm 3 mps 763 mmHg 74%
    03:00 +8°C° 0 mm 3 mps 763 mmHg 72%
    04:00 +7°C° 0 mm 3 mps 763 mmHg 71%
    05:00 +7°C° 0 mm 3 mps 763 mmHg 71%
    06:00 +7°C° 0 mm 3 mps 763 mmHg 71%
    07:00 +7°C° 0 mm 3 mps 763 mmHg 71%
    08:00 +10°C° 0 mm 3 mps 763 mmHg 62%
    09:00 +12°C° 0 mm 3 mps 763 mmHg 54%
    10:00 +15°C° 0 mm 4 mps 763 mmHg 45%
    11:00 +18°C° 0 mm 4 mps 762 mmHg 42%
    12:00 +20°C° 0 mm 4 mps 761 mmHg 40%
    13:00 +22°C° 0 mm 5 mps 761 mmHg 37%
    14:00 +21°C° 0 mm 4 mps 760 mmHg 40%
    15:00 +21°C° 0 mm 4 mps 760 mmHg 43%
    16:00 +20°C° 0 mm 4 mps 760 mmHg 46%
    17:00 +18°C° 0 mm 4 mps 761 mmHg 52%
    18:00 +17°C° 0 mm 4 mps 761 mmHg 59%
    19:00 +14°C° 0 mm 4 mps 761 mmHg 65%
    20:00 +13°C° 0 mm 4 mps 762 mmHg 68%
    21:00 +12°C° 0 mm 4 mps 762 mmHg 71%
    22:00 +11°C° 0 mm 3 mps 762 mmHg 73%
    23:00 +11°C° 0 mm 3 mps 762 mmHg 76%

    Tomorrow, 22 July, Monday

    Time Temperature Precipitation Wind Pressure Humidity
    00:00 +11°C° 0 mm 3 mps 762 mmHg 79%
    01:00 +10°C° 0 mm 3 mps 762 mmHg 81%
    02:00 +10°C° 0 mm 3 mps 762 mmHg 82%
    03:00 +10°C° 0 mm 3 mps 762 mmHg 83%
    04:00 +10°C° 0 mm 3 mps 762 mmHg 84%
    05:00 +10°C° 0 mm 3 mps 762 mmHg 83%
    06:00 +10°C° 0 mm 3 mps 763 mmHg 82%
    07:00 +11°C° 0 mm 3 mps 763 mmHg 80%
    08:00 +12°C° 0.1 mm 3 mps 763 mmHg 78%
    09:00 +13°C° 0.1 mm 3 mps 763 mmHg 75%
    10:00 +15°C° 0.1 mm 4 mps 763 mmHg 73%
    11:00 +17°C° 0 mm 4 mps 762 mmHg 67%
    12:00 +19°C° 0 mm 4 mps 761 mmHg 61%
    13:00 +20°C° 0 mm 4 mps 761 mmHg 55%
    14:00 +20°C° 0 mm 3 mps 761 mmHg 54%
    15:00 +20°C° 0 mm 3 mps 760 mmHg 54%
    16:00 +20°C° 0 mm 3 mps 760 mmHg 54%
    17:00 +19°C° 0 mm 3 mps 761 mmHg 59%
    18:00 +17°C° 0 mm 3 mps 761 mmHg 64%
    19:00 +14°C° 0 mm 3 mps 761 mmHg 69%
    20:00 +14°C° 0 mm 3 mps 762 mmHg 71%
    21:00 +13°C° 0 mm 3 mps 762 mmHg 73%
    22:00 +12°C° 0 mm 3 mps 762 mmHg 75%
    23:00 +12°C° 0 mm 3 mps 762 mmHg 77%

    Day after tomorrow, 23 July, Tuesday

    Time Temperature Precipitation Wind Pressure Humidity
    00:00 +11°C° 0 mm 3 mps 762 mmHg 79%
    01:00 +11°C° 0 mm 3 mps 762 mmHg 81%
    02:00 +10°C° 0 mm 3 mps 762 mmHg 82%
    03:00 +10°C° 0 mm 3 mps 761 mmHg 83%
    04:00 +10°C° 0 mm 3 mps 761 mmHg 84%
    05:00 +8°C° 0 mm 4 mps 761 mmHg 85%
    06:00 +8°C° 0 mm 4 mps 762 mmHg 86%
    07:00 +8°C° 0 mm 4 mps 762 mmHg 87%
    08:00 +11°C° 0 mm 4 mps 762 mmHg 74%
    09:00 +14°C° 0 mm 5 mps 762 mmHg 62%
    10:00 +17°C° 0 mm 5 mps 762 mmHg 50%
    11:00 +19°C° 0 mm 6 mps 762 mmHg 44%
    12:00 +20°C° 0 mm 6 mps 761 mmHg 39%
    13:00 +21°C° 0 mm 6 mps 761 mmHg 34%
    14:00 +21°C° 0 mm 6 mps 761 mmHg 35%
    15:00 +20°C° 0 mm 6 mps 760 mmHg 35%
    16:00 +20°C° 0 mm 5 mps 760 mmHg 36%
    17:00 +17°C° 0 mm 5 mps 761 mmHg 38%
    18:00 +16°C° 0 mm 6 mps 761 mmHg 40%
    19:00 +14°C° 0 mm 6 mps 762 mmHg 43%
    20:00 +13°C° 0 mm 5 mps 762 mmHg 47%
    21:00 +12°C° 0 mm 5 mps 763 mmHg 50%
    22:00 +10°C° 0 mm 5 mps 763 mmHg 54%
    23:00 +10°C° 0 mm 5 mps 763 mmHg 56%

    24 July, Wednesday

    Time Temperature Precipitation Wind Pressure Humidity
    00:00 +10°C° 0 mm 5 mps 763 mmHg 57%
    01:00 +10°C° 0 mm 5 mps 763 mmHg 59%
    02:00 +9°C° 0 mm 5 mps 763 mmHg 61%
    03:00 +9°C° 0 mm 5 mps 762 mmHg 63%
    04:00 +9°C° 0 mm 5 mps 762 mmHg 65%
    05:00 +9°C° 0 mm 5 mps 763 mmHg 67%
    06:00 +9°C° 0 mm 5 mps 763 mmHg 69%
    07:00 +9°C° 0 mm 6 mps 764 mmHg 71%
    08:00 +10°C° 0 mm 6 mps 764 mmHg 65%
    09:00 +13°C° 0 mm 6 mps 764 mmHg 58%
    10:00 +15°C° 0 mm 6 mps 764 mmHg 52%
    11:00 +16°C° 0 mm 6 mps 764 mmHg 47%
    12:00 +17°C° 0 mm 5 mps 764 mmHg 43%
    13:00 +19°C° 0 mm 5 mps 763 mmHg 39%
    14:00 +19°C° 0 mm 4 mps 763 mmHg 40%
    15:00 +18°C° 0 mm 4 mps 764 mmHg 41%
    16:00 +18°C° 0 mm 4 mps 764 mmHg 42%
    17:00 +15°C° 0 mm 4 mps 764 mmHg 48%
    18:00 +13°C° 0 mm 3 mps 765 mmHg 54%
    19:00 +12°C° 0 mm 2 mps 766 mmHg 59%
    20:00 +10°C° 0 mm 2 mps 766 mmHg 61%
    21:00 +9°C° 0 mm 2 mps 767 mmHg 63%
    22:00 +9°C° 0 mm 2 mps 767 mmHg 64%
    23:00 +8°C° 0 mm 2 mps 767 mmHg 66%

    25 July, Thursday

    Time Temperature Precipitation Wind Pressure Humidity
    00:00 +8°C° 0 mm 2 mps 767 mmHg 67%
    01:00 +7°C° 0 mm 2 mps 767 mmHg 69%
    02:00 +8°C° 0 mm 2 mps 767 mmHg 69%
    03:00 +8°C° 0 mm 3 mps 767 mmHg 69%
    04:00 +8°C° 0 mm 3 mps 767 mmHg 68%
    05:00 +7°C° 0 mm 3 mps 767 mmHg 72%
    06:00 +6°C° 0 mm 2 mps 768 mmHg 75%
    07:00 +6°C° 0 mm 2 mps 768 mmHg 79%
    08:00 +8°C° 0 mm 2 mps 768 mmHg 71%
    09:00 +12°C° 0 mm 2 mps 768 mmHg 63%
    10:00 +14°C° 0 mm 1 mps 768 mmHg 55%
    11:00 +15°C° 0 mm 1 mps 767 mmHg 53%
    12:00 +18°C° 0 mm 1 mps 767 mmHg 51%
    13:00 +19°C° 0 mm 1 mps 766 mmHg 49%
    14:00 +18°C° 0 mm 2 mps 766 mmHg 53%
    15:00 +17°C° 0 mm 2 mps 766 mmHg 57%
    16:00 +16°C° 0 mm 3 mps 765 mmHg 61%
    17:00 +14°C° 0 mm 3 mps 766 mmHg 70%
    18:00 +12°C° 0 mm 3 mps 766 mmHg 78%
    19:00 +10°C° 0 mm 3 mps 766 mmHg 87%
    20:00 +10°C° 0 mm 3 mps 767 mmHg 88%
    21:00 +10°C° 0 mm 3 mps 767 mmHg 89%
    22:00 +10°C° 0 mm 3 mps 767 mmHg 90%
    23:00 +9°C° 0 mm 2 mps 766 mmHg 91%

    26 July, Friday

    Time Temperature Precipitation Wind Pressure Humidity
    00:00 +9°C° 0 mm 2 mps 766 mmHg 92%
    01:00 +9°C° 0 mm 2 mps 766 mmHg 93%
    02:00 +8°C° 0 mm 2 mps 765 mmHg 94%
    03:00 +8°C° 0 mm 2 mps 765 mmHg 95%
    04:00 +7°C° 0 mm 2 mps 765 mmHg 95%
    05:00 +7°C° 0 mm 2 mps 765 mmHg 94%
    06:00 +6°C° 0 mm 2 mps 765 mmHg 93%
    07:00 +6°C° 0 mm 2 mps 765 mmHg 91%
    08:00 +8°C° 0 mm 2 mps 765 mmHg 80%
    09:00 +10°C° 0 mm 3 mps 765 mmHg 68%
    10:00 +13°C° 0 mm 3 mps 765 mmHg 57%
    11:00 +14°C° 0 mm 3 mps 764 mmHg 52%
    12:00 +17°C° 0 mm 3 mps 764 mmHg 47%
    13:00 +19°C° 0 mm 2 mps 763 mmHg 42%
    14:00 +18°C° 0 mm 2 mps 763 mmHg 45%
    15:00 +17°C° 0 mm 3 mps 763 mmHg 49%
    16:00 +17°C° 0 mm 3 mps 763 mmHg 52%
    17:00 +15°C° 0 mm 2 mps 764 mmHg 60%
    18:00 +13°C° 0 mm 2 mps 764 mmHg 68%
    19:00 +12°C° 0 mm 1 mps 765 mmHg 76%
    20:00 +10°C° 0 mm 2 mps 765 mmHg 76%
    21:00 +10°C° 0 mm 2 mps 765 mmHg 75%
    22:00 +10°C° 0 mm 3 mps 766 mmHg 75%
    23:00 +9°C° 0 mm 3 mps 766 mmHg 77%
    Show more